AO-07 1 07530U 74089B 16252.13345088 -.00000030 00000-0 87376-4 0 9990 2 07530 101.5843 220.8983 0012115 147.6951 273.0849 12.53622924913512 FO-29 1 24278U 96046B 16252.35911119 -.00000036 00000-0 15815-5 0 9999 2 24278 98.5823 166.6838 0350305 347.4684 11.7911 13.53070475990766 RS-22 1 27939U 03042A 16252.88282613 .00000210 00000-0 46345-4 0 9992 2 27939 97.9009 41.3877 0013928 44.0481 117.2467 14.66447343692085 AO-73 1 39444U 13066AE 16252.12254104 .00000602 00000-0 81650-4 0 9997 2 39444 97.6728 302.1212 0060300 109.4348 251.3394 14.81157779149858 EO-79 1 40025U 14033R 16252.70898754 .00000604 00000-0 71679-4 0 9990 2 40025 97.9206 158.1187 0013349 144.3709 215.8401 14.88105114120620 XW-2A 1 40903U 15049E 16252.84645075 .00003984 00000-0 11214-3 0 9996 2 40903 97.4443 269.0301 0015363 188.9836 171.1136 15.36969681 54408 XW-2C 1 40906U 15049H 16252.86005905 .00001630 00000-0 93536-4 0 9997 2 40906 97.4550 258.1507 0017275 106.6380 253.6750 15.13816677 53668 LILACSAT-2 1 40908U 15049K 16252.79906987 .00000949 00000-0 57748-4 0 9998 2 40908 97.4616 257.9236 0018071 101.7710 258.5550 15.12682607 53628 UO-11 1 14781U 84021B 16252.84743180 .00000201 00000-0 31207-4 0 9997 2 14781 97.7408 302.2522 0009575 48.3295 311.8737 14.82788459748657 LO-19 1 20442U 90005G 16252.79440403 .00000033 00000-0 28141-4 0 9999 2 20442 98.5462 186.5857 0010581 258.6479 101.3516 14.32828499391329 AO-27 1 22825U 93061C 16252.14135155 .00000035 00000-0 31041-4 0 9990 2 22825 98.7680 208.9365 0009557 76.8639 283.3609 14.29966862197097 IO-26 1 22826U 93061D 16252.86649543 .00000033 00000-0 30171-4 0 9992 2 22826 98.7624 209.7814 0010024 66.7704 293.4533 14.30292699197366 GO-32 1 25397U 98043D 16252.84941885 .00000013 00000-0 24652-4 0 9990 2 25397 98.5730 195.6450 0002445 92.6716 267.4742 14.23601799943769 NO-44 1 26931U 01043C 16252.05371071 -.00000024 00000-0 22611-4 0 9992 2 26931 67.0502 99.1186 0005452 263.6640 96.3840 14.30422694779996 SO-50 1 27607U 02058C 16252.48124612 .00000108 00000-0 36253-4 0 9993 2 27607 64.5539 266.3501 0058859 198.3835 161.5141 14.75204635737554 CO-55 1 27844U 03031E 16252.48359591 .00000079 00000-0 55468-4 0 9990 2 27844 98.6936 259.5768 0010923 82.9956 277.2464 14.21974171684281 CO-57 1 27848U 03031J 16252.47823946 .00000064 00000-0 49028-4 0 9992 2 27848 98.7032 259.7035 0010840 90.8135 269.4284 14.21597747684178 CO-65 1 32785U 08021C 16252.84460583 .00000483 00000-0 58686-4 0 9992 2 32785 97.5967 283.5546 0013802 26.5716 333.6205 14.87650452453066 PRISM 1 33493U 09002B 16252.86640728 .00001986 00000-0 18661-3 0 9999 2 33493 98.2057 116.8597 0014392 294.4511 65.5191 14.95121825413730 TISAT-1 1 36799U 10035E 16252.86843496 .00001115 00000-0 12168-3 0 9996 2 36799 98.0370 4.4759 0012947 165.4135 194.7458 14.89954135333882 ALMASAT-1 1 38078U 12006B 16252.19747729 .00037594 37980-5 47828-3 0 9999 2 38078 69.4477 163.3810 0367485 341.8688 16.9640 15.07736919242077 DUCHIFAT-1 1 40021U 14033M 16252.72506626 .00000895 00000-0 99957-4 0 9993 2 40021 97.9241 159.4191 0013947 142.3108 217.9089 14.89441751120692 NANOSATCBR1 1 40024U 14033Q 16252.73955088 .00000801 00000-0 91414-4 0 9994 2 40024 97.9213 158.7266 0013207 142.1921 218.0226 14.88833240120668 DTUSAT-2 1 40030U 14033W 16252.71098988 .00000623 00000-0 74369-4 0 9998 2 40030 97.9182 157.5009 0012941 138.3650 221.8553 14.87738854120593 ANTELSAT 1 40034U 14033AA 16252.89564776 .00000584 00000-0 95048-4 0 9997 2 40034 97.8921 138.9681 0060389 116.1774 244.5659 14.73460213119500 MET-2/21 1 22782U 93055A 16252.10254538 .00000027 00000-0 10986-4 0 9994 2 22782 82.5462 247.4270 0023399 139.4873 286.4363 13.83790442162683 NOAA-15 1 25338U 98030A 16252.52460270 .00000052 00000-0 40816-4 0 9993 2 25338 98.7852 256.8490 0009688 308.4019 51.6290 14.25751545952864 NOAA-18 1 28654U 05018A 16252.51889695 .00000045 00000-0 50091-4 0 9994 2 28654 99.1981 261.6193 0015005 138.6041 221.6270 14.12303021582491 NOAA-19 1 33591U 09005A 16252.48525829 .00000101 00000-0 80066-4 0 9990 2 33591 99.0487 209.9763 0013897 349.1892 10.8979 14.12104122390891 HUBBLE 1 20580U 90037B 16252.87654480 .00000917 00000-0 46111-4 0 9996 2 20580 28.4700 66.0086 0002916 31.0418 112.8645 15.08484429247767 ISS 1 25544U 98067A 16252.78182069 .00005937 00000-0 95676-4 0 9998 2 25544 51.6450 0.9314 0002706 308.8858 154.8280 15.54469489 17994 CO-58 1 28895U 05043F 16252.45490811 .00000284 00000-0 63670-4 0 9992 2 28895 97.8391 62.2360 0015954 318.9573 41.0428 14.63248313579285 AAUSAT2 1 32788U 08021F 16252.06472799 .00001281 00000-0 12718-3 0 9993 2 32788 97.5963 292.1741 0011953 1.5298 358.5956 14.93376817453562 DO-64 1 32789U 08021G 16251.85899479 .00002907 00000-0 21667-3 0 9997 2 32789 97.5966 309.6225 0012696 345.8471 14.2397 15.03620159454423 CO-66 1 32791U 08021J 16252.06872704 .00000642 00000-0 72224-4 0 9996 2 32791 97.5970 286.2551 0013902 17.5261 342.6434 14.89881436453131 RS-30 1 32953U 08025A 16252.82744909 .00000032 00000-0 15837-3 0 9998 2 32953 82.5011 54.6277 0019149 177.5079 182.6099 12.43071344376462 JUGNU 1 37839U 11058B 16252.50749734 .00000343 00000-0 41062-4 0 9997 2 37839 19.9623 358.3918 0018945 319.1752 128.0818 14.12551754253827 SRMSAT 1 37841U 11058D 16252.51650140 .00000313 00000-0 26742-4 0 9998 2 37841 19.9726 34.2280 0011739 227.3339 190.9724 14.10549519253469 AO-71 1 37854U 11061E 16252.68145546 .00004042 00000-0 22783-3 0 9996 2 37854 101.6965 337.4248 0172242 187.2681 172.6029 15.02602889264638 HRBE 1 37855U 11061F 16252.82708259 .00004126 00000-0 22795-3 0 9995 2 37855 101.7113 335.6561 0185551 191.5719 168.1197 15.01536792264544 HORYU-2 1 38340U 12025D 16251.92947987 .00000475 00000-0 78570-4 0 9995 2 38340 098.3618 240.1713 0012996 107.2642 252.9989 14.75105821221263 RS-40 1 38735U 12041C 16252.80200132 .00000013 00000-0 21115-4 0 9994 2 38735 82.4771 139.6501 0016053 283.8102 76.1191 12.42572991186744 BEESAT-3 1 39134U 13015E 16252.48943894 .00003341 00000-0 18085-3 0 9991 2 39134 64.8707 54.7511 0013813 308.5470 51.4417 15.16375471186748 BEESAT-2 1 39136U 13015G 16252.82604990 .00002338 00000-0 13849-3 0 9990 2 39136 64.8717 60.6966 0013725 307.1641 52.8229 15.13961865186660 ZACUBE-1 1 39417U 13066B 16251.80483395 .00000497 00000-0 69509-4 0 9998 2 39417 97.6716 301.1133 0061060 112.6128 248.1559 14.80471991150990 TRITON-1 1 39427U 13066M 16252.08532004 .00000326 00000-0 60334-4 0 9990 2 39427 97.6619 280.0738 0114958 171.3283 188.9946 14.67251253149674 GOMX-1 1 39430U 13066Q 16252.73907923 .00000344 00000-0 72118-4 0 9995 2 39430 97.6675 267.3260 0151539 211.2986 147.9118 14.58663166148909 LO-74 1 39440U 13066AA 16252.10588236 .00000427 00000-0 66890-4 0 9991 2 39440 97.6660 292.8985 0082233 134.3683 226.4303 14.75228664150501 SPROUT 1 39770U 14029E 16252.01464151 .00001298 00000-0 15620-3 0 9997 2 39770 97.8740 348.3258 0009862 164.5014 195.6482 14.85585711124234 EO-80 1 40032U 14033Y 16252.67355886 .00000629 00000-0 75125-4 0 9995 2 40032 97.9190 157.4726 0012887 138.8195 221.3996 14.87672882120580 VELOX-1 1 40057U 14034E 16252.74336389 .00000798 00000-0 12136-3 0 9997 2 40057 98.1945 342.7960 0009929 236.4939 123.5317 14.76807446118212 DAURIA DX 1 1 40071U 14037C 16252.72336285 .00000384 00000-0 57116-4 0 9998 2 40071 98.3318 346.8548 0007363 233.2852 126.7682 14.80866715117319 UKUBE-1 1 40074U 14037F 16252.80111614 .00000870 00000-0 11369-3 0 9996 2 40074 98.3371 349.4310 0003628 229.8773 130.2113 14.83176807117464 HODOYOSHI-1 1 40299U 14070B 16252.79180707 .00001876 00000-0 86172-4 0 9991 2 40299 97.4264 333.5683 0013922 6.1663 88.6635 15.21548384102143 CHUBUSAT-1 1 40300U 14070C 16252.89013441 .00002066 00000-0 98356-4 0 9994 2 40300 97.4211 331.6588 0021448 10.3497 102.2720 15.20080432102046 QSAT-EOS 1 40301U 14070D 16252.83049343 .00003947 00000-0 17614-3 0 9995 2 40301 97.4150 331.0470 0029072 8.1054 87.7599 15.21587484102027 FIREBIRD FU3 1 40377U 15003B 16252.86973637 .00006128 00000-0 27440-3 0 9992 2 40377 99.0940 15.6441 0141913 213.0428 146.1872 15.13127309 88438 FIREBIRD FU4 1 40378U 15003C 16252.86554805 .00005971 00000-0 26724-3 0 9994 2 40378 99.0941 15.6572 0142136 212.9951 146.2346 15.13136188 88434 GRIFEX 1 40379U 15003D 16252.83651039 .00005266 00000-0 24671-3 0 9995 2 40379 99.0943 14.5059 0146438 217.5110 141.5828 15.11235153 88367 NO-84 1 40654U 15025D 16252.45138546 .00008525 00000-0 18516-3 0 02182 2 40654 054.9974 050.3237 0198664 280.3112 077.5491 15.27111358036758 NO-83 1 40655U 15025E 16252.46444754 .00013395 00000-0 25819-3 0 02405 2 40655 054.9881 040.8419 0178334 285.0435 073.0630 15.32811237036861 DEORBITSAIL 1 40719U 15032E 16252.22078758 .00000843 00000-0 13065-3 0 9990 2 40719 98.0061 143.0826 0016287 335.4228 24.6204 14.75665009 62731 NUDT-PHONESAT 1 40900U 15049B 16252.79531074 .00004358 00000-0 22044-3 0 9999 2 40900 97.4464 259.0736 0016569 122.5067 237.7770 15.17436730 53751 XW-2D 1 40907U 15049J 16252.85862200 .00001729 00000-0 98872-4 0 9993 2 40907 97.4517 257.9952 0016675 105.1028 255.2049 15.13871781 53665 XW-2F 1 40910U 15049M 16252.79848797 .00002314 00000-0 12905-3 0 9998 2 40910 97.4547 258.2178 0017755 104.2869 256.0336 15.14426717 53551 XW-2B 1 40911U 15049N 16252.85913158 .00001687 00000-0 96644-4 0 9995 2 40911 97.4564 258.2181 0016560 105.2983 255.0080 15.13850886 53569 DCBB 1 40912U 15049P 16252.71198128 .00003155 00000-0 16520-3 0 9999 2 40912 97.4536 259.1495 0017983 99.4663 12.1713 15.16405212 53619 TW-1C 1 40926U 15051B 16252.85398572 .00010963 00000-0 29607-3 0 9992 2 40926 97.2678 288.8974 0015599 106.3797 357.2374 15.37801995 53614 TW-1A 1 40928U 15051D 16252.86584755 .00004611 00000-0 14264-3 0 9991 2 40928 97.2629 287.5806 0015417 122.4034 358.5589 15.33872424 53549 IO-86 1 40931U 15052B 16252.02981324 .00000615 00000-0 -32883-5 0 9997 2 40931 5.9992 84.4651 0013014 214.2079 145.7264 14.76477903 51198 GomX-3 1 40949U 98067HA 16252.59093934 .00122756 16980-4 33281-3 0 9995 2 40949 51.6258 318.9275 0004492 355.1756 4.9207 15.94020702 53292 LQSat 1 40958U 15057A 16252.80341683 .00000179 00000-0 35752-4 0 9996 2 40958 98.0091 326.5740 0016911 245.5902 114.3535 14.72895985 49695 AO-85 1 40967U 15058D 16252.44576596 .00001408 00000-0 17182-3 0 02502 2 40967 064.7785 353.3617 0193954 178.6567 181.5062 14.75141228035550 ATHENOXAT-1 1 41168U 15077C 16252.72675293 .00004359 00000-0 21824-3 0 9998 2 41168 14.9843 63.8508 0012417 79.1964 11.4420 15.10333989 40404 ChubuSat-2 1 41338U 16012B 16251.93288830 .00000767 00000-0 54105-4 0 9994 2 41338 031.0029 104.5526 0013882 146.4702 213.6813 14.99474440030581 ChubuSat-3 1 41339U 16012C 16252.76663778 .00000879 00000-0 62683-4 0 9999 2 41339 31.0106 98.8820 0013656 161.7364 198.3733 14.99702223 30687 Horyu-4 1 41340U 16012D 16251.91552648 .00001175 00000-0 84975-4 0 9998 2 41340 031.0050 103.4439 0014221 158.2059 201.9184 15.00162927030581 OUFTI-1 1 41458U 16025C 16252.86379210 .00004539 00000-0 25350-3 0 9997 2 41458 98.2064 268.1335 0178201 148.5080 212.6959 15.01516319 20330 e-st@r-II 1 41459U 16025D 16251.86530104 .00004746 00000-0 26513-3 0 9990 2 41459 98.2060 267.0686 0178310 151.9322 209.1656 15.01464518 20183 AAUSAT4 1 41460U 16025E 16252.71436883 .00004669 00000-0 26091-3 0 9991 2 41460 98.2112 268.0163 0175458 148.0884 213.1043 15.01828738 20312 MinXSS 1 41474U 98067HU 16252.82989854 .00054464 00000-0 62734-3 0 9997 2 41474 51.6430 357.7358 0001695 65.0006 295.1163 15.61424046 17982 CADRE 1 41475U 98067HV 16252.79060740 .00082477 00000-0 82335-3 0 9992 2 41475 51.6396 356.7061 0001428 1.7599 358.3401 15.64909748 17990 NODES 1 1 41477U 98067HX 16252.88460680 .00029604 00000-0 36698-3 0 9995 2 41477 51.6405 358.0882 0001769 53.3997 306.7158 15.59790798 17894 NODES 2 1 41478U 98067HY 16252.69526316 .00030897 00000-0 38374-3 0 9993 2 41478 51.6404 359.0727 0001674 52.9147 307.1998 15.59717113 17864 NuSat1-LUSEX 1 41557U 16033B 16252.80681456 .00003368 00000-0 13476-3 0 9993 2 41557 97.4915 326.1111 0013440 281.1954 175.1019 15.25713253 15505 NuSat2 1 41558U 16033C 16252.81603035 .00003418 00000-0 13732-3 0 9993 2 41558 97.4946 326.1298 0012778 279.6165 175.9665 15.25573811 15504 Lapan A3 1 41603U 16040E 16252.80477844 .00000626 00000-0 33078-4 0 9992 2 41603 97.5031 311.4755 0013251 342.3925 110.7627 15.19115301 11932 Swayam 1 41607U 16040J 16252.58996372 .00003455 00000-0 16659-3 0 9991 2 41607 97.5006 311.2368 0014274 345.9022 14.1812 15.19303804 11827 /EX
